Location: Kuppenheim
(48.8299°N, 8.2568°E)
Time: 10:25:40
(UTC+00:00)

FALCON 9 DEB - Pass Details

Date: 20 June 2021
Orbit: 358 x 375 km, 53.0° (Epoch: 01 August)

Event Time Altitude Azimuth Distance (km) Brightness Sun altitude
Rises 02:41:36 0° 292° (WNW) 2,258 6.5 -5.9°
Reaches altitude 10° 02:43:46 10° 282° (WNW) 1,399 5.4 -5.6°
Maximum altitude 02:46:37 33° 217° (SW) 667 3.6 -5.3°
Drops below altitude 10° 02:49:26 10° 151° (SSE) 1,381 5.5 -5.0°
Sets 02:51:34 0° 141° (SE) 2,223 6.7 -4.7°
